When you browse on this site, cookies collect data to enhance your experience and personalize the content and advertising you see.
Visit our Privacy Policy to learn more. By continuing to use the site, you agree to this use of cookies and data.
  • In Hungary
  • List of Countries
  • For 7 days
  • Water Temperature
  • Weather Map
  • News
  • Weather Widgets
  • user-avatar
    Login

    Hourly Weather Scorze

    Today, 12 November, Tuesday

    Time Temperature Precipitation Wind Pressure Humidity
    00:00 +10°C° 0.2 mm 3 mps 754 mmHg 92%
    01:00 +10°C° 0 mm 3 mps 754 mmHg 90%
    02:00 +10°C° 0 mm 3 mps 753 mmHg 89%
    03:00 +11°C° 0 mm 4 mps 753 mmHg 88%
    04:00 +11°C° 0 mm 4 mps 752 mmHg 87%
    05:00 +11°C° 0.2 mm 4 mps 752 mmHg 87%
    06:00 +11°C° 0.2 mm 4 mps 751 mmHg 87%
    07:00 +11°C° 0 mm 4 mps 751 mmHg 84%
    08:00 +10°C° 1.1 mm 5 mps 751 mmHg 87%
    09:00 +10°C° 1.1 mm 5 mps 751 mmHg 89%
    10:00 +10°C° 1.1 mm 5 mps 750 mmHg 92%
    11:00 +10°C° 1.7 mm 5 mps 750 mmHg 90%
    12:00 +10°C° 1.7 mm 5 mps 749 mmHg 88%
    13:00 +12°C° 1.7 mm 5 mps 749 mmHg 86%
    14:00 +12°C° 0.1 mm 5 mps 748 mmHg 84%
    15:00 +12°C° 0.1 mm 5 mps 747 mmHg 82%
    16:00 +12°C° 0.1 mm 4 mps 746 mmHg 80%
    17:00 +12°C° 1.8 mm 5 mps 746 mmHg 83%
    18:00 +10°C° 1.8 mm 6 mps 746 mmHg 87%
    19:00 +10°C° 1.8 mm 7 mps 746 mmHg 91%
    20:00 +10°C° 4.5 mm 7 mps 746 mmHg 89%
    21:00 +10°C° 4.5 mm 8 mps 746 mmHg 88%
    22:00 +10°C° 4.5 mm 8 mps 746 mmHg 87%
    23:00 +10°C° 1 mm 7 mps 746 mmHg 87%

    Tomorrow, 13 November, Wednesday

    Time Temperature Precipitation Wind Pressure Humidity
    00:00 +9°C° 1 mm 6 mps 747 mmHg 87%
    01:00 +10°C° 1 mm 4 mps 747 mmHg 87%
    02:00 +10°C° 0.3 mm 4 mps 747 mmHg 88%
    03:00 +10°C° 0.3 mm 3 mps 746 mmHg 89%
    04:00 +10°C° 0.3 mm 3 mps 746 mmHg 90%
    05:00 +10°C° 1.1 mm 3 mps 746 mmHg 90%
    06:00 +10°C° 1.1 mm 3 mps 746 mmHg 90%
    07:00 +9°C° 1.1 mm 3 mps 746 mmHg 91%
    08:00 +9°C° 0.5 mm 3 mps 746 mmHg 88%
    09:00 +8°C° 0.5 mm 4 mps 746 mmHg 85%
    10:00 +8°C° 0.5 mm 4 mps 746 mmHg 83%
    11:00 +9°C° 0.5 mm 3 mps 746 mmHg 83%
    12:00 +9°C° 0.5 mm 3 mps 746 mmHg 83%
    13:00 +9°C° 0.5 mm 3 mps 747 mmHg 83%
    14:00 +9°C° 0.2 mm 2 mps 747 mmHg 81%
    15:00 +9°C° 0.2 mm 2 mps 747 mmHg 80%
    16:00 +9°C° 0.2 mm 2 mps 748 mmHg 79%
    17:00 +10°C° 0 mm 1 mps 749 mmHg 80%
    18:00 +9°C° 0 mm 1 mps 750 mmHg 81%
    19:00 +9°C° 0 mm 1 mps 751 mmHg 82%
    20:00 +9°C° 0 mm 1 mps 751 mmHg 82%
    21:00 +8°C° 0 mm 1 mps 752 mmHg 83%
    22:00 +8°C° 0 mm 1 mps 753 mmHg 84%
    23:00 +7°C° 0 mm 2 mps 753 mmHg 82%

    Day after tomorrow, 14 November, Thursday

    Time Temperature Precipitation Wind Pressure Humidity
    00:00 +7°C° 0 mm 2 mps 753 mmHg 81%
    01:00 +7°C° 0 mm 2 mps 753 mmHg 80%
    02:00 +7°C° 0 mm 2 mps 753 mmHg 78%
    03:00 +7°C° 0 mm 2 mps 753 mmHg 77%
    04:00 +6°C° 0 mm 2 mps 753 mmHg 75%
    05:00 +5°C° 0 mm 3 mps 754 mmHg 74%
    06:00 +5°C° 0 mm 3 mps 754 mmHg 73%
    07:00 +5°C° 0 mm 3 mps 754 mmHg 72%
    08:00 +7°C° 0 mm 3 mps 754 mmHg 71%
    09:00 +8°C° 0 mm 2 mps 754 mmHg 70%
    10:00 +9°C° 0 mm 2 mps 754 mmHg 68%
    11:00 +10°C° 0 mm 3 mps 754 mmHg 66%
    12:00 +11°C° 0 mm 3 mps 754 mmHg 65%
    13:00 +12°C° 0 mm 3 mps 754 mmHg 63%
    14:00 +11°C° 0 mm 3 mps 754 mmHg 66%
    15:00 +12°C° 0 mm 2 mps 753 mmHg 69%
    16:00 +10°C° 0 mm 2 mps 753 mmHg 72%
    17:00 +10°C° 0 mm 2 mps 753 mmHg 73%
    18:00 +10°C° 0 mm 2 mps 753 mmHg 73%
    19:00 +10°C° 0 mm 3 mps 753 mmHg 74%
    20:00 +10°C° 0 mm 3 mps 753 mmHg 75%
    21:00 +10°C° 0 mm 4 mps 753 mmHg 76%
    22:00 +10°C° 0 mm 4 mps 753 mmHg 77%
    23:00 +10°C° 0.3 mm 4 mps 753 mmHg 78%

    15 November, Friday

    Time Temperature Precipitation Wind Pressure Humidity
    00:00 +9°C° 0.3 mm 5 mps 752 mmHg 80%
    01:00 +9°C° 0.3 mm 5 mps 752 mmHg 81%
    02:00 +10°C° 0.4 mm 5 mps 751 mmHg 83%
    03:00 +10°C° 0.4 mm 6 mps 751 mmHg 84%
    04:00 +10°C° 0.4 mm 6 mps 750 mmHg 86%
    05:00 +11°C° 1.5 mm 6 mps 750 mmHg 86%
    06:00 +11°C° 1.5 mm 7 mps 750 mmHg 85%
    07:00 +12°C° 1.5 mm 7 mps 750 mmHg 85%
    08:00 +13°C° 1.7 mm 5 mps 751 mmHg 87%
    09:00 +12°C° 1.7 mm 4 mps 751 mmHg 89%
    10:00 +12°C° 1.7 mm 3 mps 751 mmHg 91%
    11:00 +12°C° 2.5 mm 3 mps 751 mmHg 92%
    12:00 +12°C° 2.5 mm 3 mps 751 mmHg 93%
    13:00 +11°C° 2.5 mm 3 mps 751 mmHg 95%
    14:00 +12°C° 1.3 mm 4 mps 751 mmHg 93%
    15:00 +12°C° 1.3 mm 5 mps 751 mmHg 91%
    16:00 +13°C° 1.3 mm 5 mps 750 mmHg 89%
    17:00 +12°C° 2.6 mm 5 mps 751 mmHg 90%
    18:00 +10°C° 2.6 mm 5 mps 751 mmHg 91%
    19:00 +10°C° 2.6 mm 4 mps 752 mmHg 92%
    20:00 +10°C° 0.3 mm 4 mps 752 mmHg 90%
    21:00 +9°C° 0.3 mm 3 mps 753 mmHg 88%
    22:00 +9°C° 0.3 mm 2 mps 754 mmHg 86%
    23:00 +9°C° 0 mm 2 mps 754 mmHg 85%

    16 November, Saturday

    Time Temperature Precipitation Wind Pressure Humidity
    00:00 +9°C° 0 mm 1 mps 755 mmHg 85%
    01:00 +8°C° 0 mm 0 mps 756 mmHg 84%
    02:00 +9°C° 0 mm 1 mps 756 mmHg 85%
    03:00 +8°C° 0 mm 2 mps 757 mmHg 86%
    04:00 +8°C° 0 mm 2 mps 757 mmHg 87%
    05:00 +8°C° 0.1 mm 2 mps 757 mmHg 87%
    06:00 +9°C° 0.1 mm 2 mps 758 mmHg 87%
    07:00 +9°C° 0.1 mm 2 mps 758 mmHg 87%
    08:00 +9°C° 0.2 mm 3 mps 759 mmHg 84%
    09:00 +10°C° 0.2 mm 3 mps 759 mmHg 81%
    10:00 +11°C° 0.2 mm 3 mps 759 mmHg 78%
    11:00 +12°C° 0.1 mm 3 mps 759 mmHg 76%
    12:00 +12°C° 0.1 mm 3 mps 759 mmHg 75%
    13:00 +14°C° 0.1 mm 2 mps 759 mmHg 73%
    14:00 +13°C° 0.9 mm 2 mps 758 mmHg 77%
    15:00 +12°C° 0.9 mm 2 mps 758 mmHg 82%
    16:00 +12°C° 0.9 mm 1 mps 758 mmHg 87%
    17:00 +10°C° 0.7 mm 2 mps 758 mmHg 87%
    18:00 +10°C° 0.7 mm 2 mps 758 mmHg 87%
    19:00 +10°C° 0.7 mm 3 mps 758 mmHg 87%
    20:00 +10°C° 0.3 mm 3 mps 757 mmHg 85%
    21:00 +10°C° 0.3 mm 3 mps 757 mmHg 83%
    22:00 +10°C° 0.3 mm 4 mps 756 mmHg 82%
    23:00 +10°C° 0.5 mm 4 mps 755 mmHg 84%

    17 November, Sunday

    Time Temperature Precipitation Wind Pressure Humidity
    00:00 +10°C° 0.5 mm 4 mps 755 mmHg 86%
    01:00 +10°C° 0.5 mm 3 mps 754 mmHg 88%
    02:00 +11°C° 1 mm 4 mps 754 mmHg 88%
    03:00 +10°C° 1 mm 5 mps 753 mmHg 88%
    04:00 +11°C° 1 mm 6 mps 752 mmHg 88%
    05:00 +11°C° 0.9 mm 6 mps 752 mmHg 88%
    06:00 +11°C° 0.9 mm 6 mps 752 mmHg 88%
    07:00 +11°C° 0.9 mm 6 mps 752 mmHg 87%
    08:00 +11°C° 2.8 mm 7 mps 751 mmHg 88%
    09:00 +12°C° 2.8 mm 8 mps 751 mmHg 88%
    10:00 +12°C° 2.8 mm 8 mps 750 mmHg 88%
    11:00 +12°C° 5.6 mm 9 mps 749 mmHg 88%
    12:00 +12°C° 5.6 mm 9 mps 749 mmHg 88%
    13:00 +12°C° 5.6 mm 9 mps 748 mmHg 89%
    14:00 +12°C° 2.5 mm 9 mps 748 mmHg 87%
    15:00 +13°C° 2.5 mm 9 mps 748 mmHg 86%
    16:00 +13°C° 2.5 mm 8 mps 748 mmHg 85%
    17:00 +13°C° 1.4 mm 8 mps 748 mmHg 84%
    18:00 +13°C° 1.4 mm 8 mps 748 mmHg 83%
    19:00 +12°C° 1.4 mm 8 mps 748 mmHg 82%
    20:00 +12°C° 0.9 mm 7 mps 748 mmHg 82%
    21:00 +13°C° 0.9 mm 6 mps 749 mmHg 82%
    22:00 +13°C° 0.9 mm 6 mps 749 mmHg 81%
    23:00 +13°C° 1.5 mm 6 mps 749 mmHg 84%
    Show more